Burnet, TX

6:49 AM CDT on June 25, 2017 (GMT -0500)
Burnet Municipal-Craddock

Weather History for KBMQ - September, 2011

Change the Weather History Date:

Thursday, September 15, 2011

  Actual Average Record
Temperature  
Mean Temperature 82 °F -  
Max Temperature 93 °F 86 °F 97 °F (2000)
Min Temperature 71 °F 66 °F 63 °F (2003)
Cooling Degree Days 17    
Growing Degree Days 32 (Base 50)    
Moisture  
Dew Point 61 °F    
Average Humidity 52    
Maximum Humidity 78    
Minimum Humidity 31    
Precipitation  
Precipitation 0.00 in - - ()
Sea Level Pressure  
Sea Level Pressure 30.01 in    
Wind  
Wind Speed 6 mph (East)    
Max Wind Speed 10 mph    
Max Gust Speed 16 mph    
Visibility 10 miles    
Events      
Averages and records for this station are not official NWS values.
T = Trace of Precipitation, MM = Missing Value Source: NWS Daily Summary

Daily Weather History Graph

Daily Weather History Graph

Search for Another Location

Airport or City:

Trip Planner

Search our weather history database for the weather conditions in past years. The results will help you decide how hot, cold, wet, or windy it might be!

Date:

Astronomy

Sep. 15, 2011 Rise Set
Actual Time 7:17 AM CDT 7:38 PM CDT
Civil Twilight 6:52 AM CDT 8:02 PM CDT
Nautical Twilight 6:24 AM CDT 8:31 PM CDT
Astronomical Twilight 5:56 AM CDT 8:59 PM CDT
Moon 9:15 PM CDT (9/15) 10:08 AM CDT (9/15)
Length of Visible Light 13h 09m
Length of Day
12h 21m
Waning Gibbous, 90% of the Moon is Illuminated
Sep 15
Waning Gibbous
Sep 20
Last Quarter
Sep 27
New
Oct 3
First Quarter
Oct 11
Full

Hourly Weather History & Observations

Time (CDT) Temp. Heat Index Dew Point Humidity Pressure Visibility Wind Dir Wind Speed Gust Speed Precip Events Conditions
12:53 AM 80.1 °F 80.6 °F 57.9 °F 47% 29.94 in 10.0 mi South 10.4 mph - N/A   Clear
3:53 AM 73.9 °F - 64.9 °F 73% 29.96 in 10.0 mi South 6.9 mph - N/A   Clear
4:53 AM 73.0 °F - 64.9 °F 76% 29.97 in 10.0 mi WSW 3.5 mph - N/A   Unknown
6:53 AM 71.1 °F - 64.0 °F 78% 30.02 in 9.0 mi Calm Calm - N/A   Clear
7:53 AM 72.0 °F - 64.0 °F 76% 30.03 in - NNE 3.5 mph - N/A   Unknown
8:53 AM 75.9 °F - 66.0 °F 71% 30.04 in 10.0 mi ENE 3.5 mph - N/A   Clear
9:29 AM 77.0 °F - 66.2 °F 69% 30.11 in 10.0 mi NE 3.5 mph - N/A   Mostly Cloudy
9:50 AM 78.8 °F - 64.4 °F 61% 30.11 in 10.0 mi Calm Calm - N/A   Scattered Clouds
10:53 AM 82.0 °F 83.1 °F 63.0 °F 52% 30.06 in 10.0 mi NNE 3.5 mph - N/A   Clear
11:53 AM 84.0 °F 84.4 °F 61.0 °F 46% 30.06 in 10.0 mi Calm Calm - N/A   Clear
12:53 PM 86.0 °F 85.7 °F 60.1 °F 41% 30.04 in 10.0 mi Calm Calm - N/A   Clear
1:53 PM 89.1 °F 88.0 °F 57.9 °F 35% 30.01 in 10.0 mi Variable 3.5 mph - N/A   Partly Cloudy
3:53 PM 91.0 °F 89.7 °F 57.0 °F 32% 29.98 in 10.0 mi SE 8.1 mph - N/A   Mostly Cloudy
4:53 PM 93.0 °F 92.0 °F 57.9 °F 31% 29.96 in 10.0 mi ESE 10.4 mph 16.1 mph N/A   Mostly Cloudy
5:53 PM 91.9 °F 90.8 °F 57.9 °F 32% 29.96 in 10.0 mi SSE 9.2 mph - N/A   Mostly Cloudy
7:53 PM 87.1 °F 86.5 °F 59.0 °F 39% 29.96 in 10.0 mi East 4.6 mph - N/A   Partly Cloudy
8:53 PM 86.0 °F 85.4 °F 59.0 °F 40% 29.97 in 10.0 mi East 5.8 mph - N/A   Clear
10:53 PM 82.0 °F 82.1 °F 59.0 °F 45% 30.01 in 10.0 mi East 9.2 mph - N/A   Overcast
11:53 PM 80.1 °F 80.7 °F 59.0 °F 48% 30.02 in 10.0 mi East 9.2 mph - N/A   Clear